Location: Saint-Usage
(47.1052°N, 5.2587°E)
Time: 03:06:05
(UTC+02:00)

Envisat - Pass Details

Date: 03 October 2021
Orbit: 764 x 766 km, 98.2° (Epoch: 17 October)

Event Time Altitude Azimuth Distance (km) Brightness Sun altitude
Rises 05:58:58 0° 23° (NNE) 3,241 6.8 -18.0°
Reaches altitude 10° 06:01:36 10° 35° (NE) 2,310 6.2 -17.6°
Maximum altitude 06:05:57 28° 94° (E) 1,406 5.1 -16.8°
Drops below altitude 10° 06:10:17 10° 153° (SSE) 2,295 5.7 -16.1°
Sets 06:12:52 0° 165° (SSE) 3,216 6.3 -15.7°
